Main page
METAR-TAF:

METAR-TAF

Airports :

Randolph Air Force Base

Universal City, Texas, United States

latitude: 29-32N, longitude: 098-17W, elevation: 761 ft

Current weather observation

The report was made 1 hour and 20 minutes ago, at 01:55 UTC
Wind 24 mph from the Southeast with gusts up to 30 mph
Temperature 86°F
Humidity 59%
Pressure 29.75 in. Hg
Visibility: 10 miles
Scattered clouds at a height of 3400 ft

METAR: KRND 180155Z AUTO 14021G26KT 10SM SCT034 30/21 A2975 RMK AO2 PK WND 12027/42 SLP065 T02970213

Time: 22:15 (03:15 UTC)


TAF: missing

Weather observations and forecasts of more than 4000 airports (METAR and TAF reports).

The available stations are represented by yellow and red dots on the map.

Hover mouse over dot to see the name of the station.

Then click to see weather observations and forecasts.

To change the map : click on the green buttons with a black cross to zoom in, on the green button with a dash to zoom out, or on the green arrows for adjacent maps.


METAR-TAF: